Terug naar catalogus

DMSP 5D-2 F13 DEB

ActiefSSO
NORAD 40509·DEBRIS·🇺🇸 United States

Gelanceerd Mar 24, 1995 vanaf Vandenberg Space Force Base

Loading…

Volgende Passages (komende 24 uur)

TLE

VersSource: Space-Track

Epoch: Sep 13, 2026, 23:21 UTC

1 40509U 95015CV  26256.97323065  .00000325  00000-0  16296-3 0  9991
2 40509  98.6456 271.5902 0024439  79.0889 281.3038 14.22956325595279

Volg DMSP 5D-2 F13 DEB in realtime met AllMySat

Download on the App Store